Abbeville, LA

1:31 AM CDT on April 29, 2017 (GMT -0500)
Abbeville

Weather History for KIYA - November, 2013

Change the Weather History Date:

Tuesday, November 19, 2013

  Actual Average (KARA) Record (KARA)
Temperature  
Mean Temperature 58 °F -  
Max Temperature 67 °F 68 °F 83 °F (1991)
Min Temperature 48 °F 48 °F 28 °F (1951)
Degree Days  
Heating Degree Days 8    
Growing Degree Days 8 (Base 50)    
Moisture  
Dew Point 31 °F    
Average Humidity 39    
Maximum Humidity 72    
Minimum Humidity 11    
Precipitation  
Precipitation 0.00 in - - ()
Sea Level Pressure  
Sea Level Pressure 30.11 in    
Wind  
Wind Speed 7 mph (NE)    
Max Wind Speed 12 mph    
Max Gust Speed 18 mph    
Visibility 10 miles    
Events      
Averages and records for this station are not official NWS values.
T = Trace of Precipitation, MM = Missing Value Source: NWS Daily Summary

Daily Weather History Graph

Daily Weather History Graph

Search for Another Location

Airport or City:

Trip Planner

Search our weather history database for the weather conditions in past years. The results will help you decide how hot, cold, wet, or windy it might be!

Date:

Astronomy

Nov. 19, 2013 Rise Set
Actual Time 6:36 AM CST 5:10 PM CST
Civil Twilight 6:11 AM CST 5:35 PM CST
Nautical Twilight 5:42 AM CST 6:05 PM CST
Astronomical Twilight 5:13 AM CST 6:33 PM CST
Moon 7:03 PM CST (11/19) 8:15 AM CST (11/19)
Length of Visible Light 11h 24m
Length of Day
10h 33m
Waning Gibbous, 96% of the Moon is Illuminated
Nov 19
Waning Gibbous
Nov 25
Last Quarter
Dec 2
New
Dec 9
First Quarter
Dec 17
Full

Hourly Weather History & Observations

Time (CST) Temp. Dew Point Humidity Pressure Visibility Wind Dir Wind Speed Gust Speed Precip Events Conditions
12:15 AM 60.3 °F 33.4 °F 37% 30.10 in 10.0 mi NNE 8.1 mph - N/A   Scattered Clouds
12:35 AM 59.2 °F 34.2 °F 39% 30.10 in 10.0 mi NNE 6.9 mph - N/A   Scattered Clouds
12:55 AM 58.6 °F 34.5 °F 40% 30.11 in 10.0 mi NNE 6.9 mph - N/A   Scattered Clouds
1:15 AM 58.1 °F 34.7 °F 41% 30.11 in 10.0 mi NNE 5.8 mph - N/A   Scattered Clouds
1:35 AM 57.4 °F 35.6 °F 44% 30.11 in 10.0 mi NNE 5.8 mph - N/A   Clear
1:55 AM 57.2 °F 35.6 °F 44% 30.11 in 10.0 mi NNE 6.9 mph - N/A   Mostly Cloudy
2:15 AM 56.7 °F 36.0 °F 46% 30.10 in 10.0 mi NNE 6.9 mph - N/A   Mostly Cloudy
2:35 AM 56.3 °F 36.7 °F 48% 30.09 in 10.0 mi NNE 8.1 mph - N/A   Mostly Cloudy
2:55 AM 57.2 °F 36.1 °F 45% 30.09 in 10.0 mi NNE 11.5 mph 17.3 mph N/A   Overcast
3:15 AM 57.6 °F 35.6 °F 44% 30.10 in 10.0 mi NNE 9.2 mph 16.1 mph N/A   Overcast
3:35 AM 57.6 °F 35.6 °F 44% 30.11 in 10.0 mi NNE 6.9 mph - N/A   Overcast
3:55 AM 57.6 °F 35.6 °F 44% 30.11 in 10.0 mi NNE 9.2 mph - N/A   Overcast
4:15 AM 57.2 °F 35.6 °F 44% 30.11 in 10.0 mi NNE 9.2 mph - N/A   Overcast
4:35 AM 57.2 °F 35.1 °F 43% 30.10 in 10.0 mi NE 8.1 mph - N/A   Overcast
4:55 AM 56.5 °F 35.2 °F 45% 30.10 in 10.0 mi NNE 10.4 mph 18.4 mph N/A   Overcast
5:15 AM 56.1 °F 35.6 °F 46% 30.11 in 10.0 mi NNE 6.9 mph - N/A   Overcast
5:35 AM 56.1 °F 35.6 °F 46% 30.12 in 10.0 mi NNE 6.9 mph - N/A   Overcast
5:55 AM 56.3 °F 35.2 °F 45% 30.12 in 10.0 mi NE 8.1 mph - N/A   Overcast
6:15 AM 56.3 °F 34.9 °F 45% 30.12 in 10.0 mi NE 8.1 mph - N/A   Overcast
6:35 AM 56.3 °F 34.9 °F 45% 30.13 in 10.0 mi NE 6.9 mph - N/A   Overcast
6:55 AM 56.3 °F 34.7 °F 44% 30.12 in 10.0 mi NE 6.9 mph - N/A   Overcast
7:15 AM 56.3 °F 34.7 °F 44% 30.13 in 10.0 mi ENE 8.1 mph - N/A   Overcast
7:35 AM 56.7 °F 35.2 °F 45% 30.15 in 10.0 mi NE 6.9 mph - N/A   Overcast
7:55 AM 56.7 °F 35.2 °F 45% 30.15 in 10.0 mi NE 8.1 mph - N/A   Overcast
8:15 AM 57.0 °F 35.6 °F 45% 30.16 in 10.0 mi NE 8.1 mph - N/A   Overcast
8:35 AM 57.6 °F 35.4 °F 43% 30.16 in 10.0 mi ENE 9.2 mph - N/A   Overcast
8:55 AM 58.1 °F 33.8 °F 40% 30.16 in 10.0 mi ENE 9.2 mph - N/A   Overcast
9:15 AM 59.7 °F 31.5 °F 34% 30.16 in 10.0 mi ENE 11.5 mph 18.4 mph N/A   Overcast
9:35 AM 61.0 °F 30.7 °F 32% 30.17 in 10.0 mi ENE 9.2 mph 16.1 mph N/A   Mostly Cloudy
9:55 AM 60.6 °F 30.6 °F 32% 30.17 in 10.0 mi ENE 8.1 mph - N/A   Mostly Cloudy
10:15 AM 60.1 °F 29.8 °F 32% 30.17 in 10.0 mi ENE 6.9 mph - N/A   Overcast
10:35 AM 61.2 °F 29.8 °F 31% 30.17 in 10.0 mi East 5.8 mph - N/A   Overcast
10:55 AM 61.3 °F 27.9 °F 28% 30.16 in 10.0 mi ENE 10.4 mph 16.1 mph N/A   Mostly Cloudy
11:15 AM 63.9 °F 27.0 °F 25% 30.15 in 10.0 mi ENE 9.2 mph 17.3 mph N/A   Clear
11:35 AM 62.8 °F 25.3 °F 24% 30.14 in 10.0 mi NE 11.5 mph 16.1 mph N/A   Scattered Clouds
11:55 AM 63.5 °F 24.1 °F 22% 30.14 in 10.0 mi NE 5.8 mph - N/A   Clear
12:15 PM 63.0 °F 25.2 °F 24% 30.13 in 10.0 mi NNE 9.2 mph - N/A   Clear
12:35 PM 65.1 °F 22.3 °F 20% 30.11 in 10.0 mi NE 6.9 mph - N/A   Clear
12:55 PM 65.5 °F 18.9 °F 17% 30.10 in 10.0 mi NNE 11.5 mph 16.1 mph N/A   Clear
1:15 PM 65.7 °F 19.8 °F 17% 30.08 in 10.0 mi NNE 9.2 mph - N/A   Clear
1:35 PM 65.8 °F 14.9 °F 14% 30.08 in 10.0 mi NE 8.1 mph - N/A   Clear
1:55 PM 66.4 °F 10.8 °F 11% 30.08 in 10.0 mi NE 8.1 mph 16.1 mph N/A   Clear
2:15 PM 66.4 °F 10.2 °F 11% 30.07 in 10.0 mi NE 9.2 mph - N/A   Clear
2:35 PM 66.6 °F 11.8 °F 12% 30.07 in 7.0 mi NNE 6.9 mph - N/A   Scattered Clouds
2:55 PM 67.5 °F 14.9 °F 13% 30.07 in 10.0 mi NNE 6.9 mph - N/A   Scattered Clouds
3:15 PM 67.3 °F 17.1 °F 15% 30.07 in 7.0 mi NNE 6.9 mph - N/A   Scattered Clouds
3:35 PM 67.1 °F 16.9 °F 15% 30.06 in 10.0 mi North 5.8 mph - N/A   Clear
3:55 PM 66.4 °F 17.8 °F 16% 30.06 in 10.0 mi NE 5.8 mph - N/A   Clear
4:15 PM 65.7 °F 20.8 °F 18% 30.07 in 10.0 mi NE 5.8 mph - N/A   Clear
4:35 PM 64.2 °F 23.0 °F 21% 30.07 in 10.0 mi ENE 4.6 mph - N/A   Clear
4:55 PM 61.3 °F 26.2 °F 26% 30.07 in 10.0 mi NE 3.5 mph - N/A   Clear
5:15 PM 59.2 °F 31.1 °F 35% 30.08 in 10.0 mi Calm Calm - N/A   Clear
5:35 PM 57.2 °F 34.2 °F 42% 30.08 in 10.0 mi Calm Calm - N/A   Clear
5:55 PM 55.8 °F 36.0 °F 47% 30.08 in 10.0 mi Calm Calm - N/A   Clear
6:15 PM 54.1 °F 37.9 °F 54% 30.08 in 10.0 mi NNE 3.5 mph - N/A   Clear
6:35 PM 55.2 °F 34.9 °F 46% 30.08 in 10.0 mi NNE 3.5 mph - N/A   Clear
6:55 PM 55.8 °F 32.2 °F 41% 30.08 in 10.0 mi NNE 4.6 mph - N/A   Clear
7:15 PM 52.3 °F 35.2 °F 52% 30.09 in 10.0 mi Calm Calm - N/A   Clear
7:35 PM 51.1 °F 37.0 °F 59% 30.09 in 10.0 mi Calm Calm - N/A   Clear
7:55 PM 50.2 °F 38.5 °F 64% 30.09 in 10.0 mi Calm Calm - N/A   Clear
8:15 PM 50.5 °F 37.2 °F 60% 30.09 in 10.0 mi Calm Calm - N/A   Clear
8:35 PM 48.2 °F 39.4 °F 72% 30.09 in 10.0 mi NNE 3.5 mph - N/A   Clear
8:55 PM 48.6 °F 39.2 °F 70% 30.09 in 10.0 mi NNE 4.6 mph - N/A   Clear
9:15 PM 49.8 °F 37.0 °F 61% 30.09 in 10.0 mi Calm Calm - N/A   Clear
9:35 PM 50.7 °F 35.8 °F 57% 30.09 in 10.0 mi East 3.5 mph - N/A   Clear
9:55 PM 50.9 °F 34.9 °F 54% 30.09 in 10.0 mi Calm Calm - N/A   Clear
10:15 PM 50.9 °F 34.7 °F 54% 30.10 in 10.0 mi East 3.5 mph - N/A   Clear
10:35 PM 51.3 °F 32.9 °F 50% 30.10 in 10.0 mi ENE 5.8 mph - N/A   Clear
10:55 PM 50.7 °F 33.1 °F 51% 30.09 in 10.0 mi ENE 3.5 mph - N/A   Clear
11:15 PM 50.2 °F 32.9 °F 52% 30.09 in 10.0 mi ENE 3.5 mph - N/A   Clear
11:35 PM 49.1 °F 33.8 °F 56% 30.09 in 10.0 mi ENE 3.5 mph - N/A   Clear
11:55 PM 48.6 °F 34.5 °F 58% 30.09 in 10.0 mi Calm Calm - N/A   Clear